Location: Grieser Field
(39.7333°N, 81.7975°W)
Time: 01:43:22
(UTC-04:00)

MOS 1-B - Visible Passes

Search period start: 20 April 2014 00:00
Search period end: 30 April 2014 00:00
Orbit: 906 x 914 km, 99.1° (Epoch: 18 April)

Date Brightness Start Highest point End Pass type
(mag) Time Alt. Az. Time Alt. Az. Time Alt. Az.
20 Apr 6.8 02:16:39 10° ENE 02:18:10 11° E 02:18:10 11° E visible
20 Apr 4.2 03:55:07 10° NNE 04:00:57 90° ESE 04:01:26 77° SSW visible
20 Apr 6.2 05:39:15 10° NNW 05:41:59 14° WNW 05:44:43 10° W visible
21 Apr 6.7 02:21:31 10° ENE 02:23:58 13° E 02:23:58 13° E visible
21 Apr 4.2 04:00:45 10° NNE 04:06:34 82° WNW 04:07:15 70° SW visible
21 Apr 6.3 05:45:20 10° NW 05:47:31 12° WNW 05:49:42 10° W visible
22 Apr 6.6 02:26:38 10° ENE 02:29:47 15° E 02:29:47 15° E visible
22 Apr 4.2 04:06:23 10° N 04:12:11 74° WNW 04:13:03 62° SW visible
22 Apr 6.3 05:51:39 10° NW 05:53:03 11° NW 05:54:26 10° WNW visible
23 Apr 6.4 02:31:52 10° NE 02:35:28 17° E 02:35:35 17° E visible
23 Apr 4.3 04:12:02 10° N 04:17:48 66° WNW 04:18:52 55° WSW visible
24 Apr 6.3 02:37:10 10° NE 02:41:10 19° E 02:41:24 19° E visible
24 Apr 4.4 04:17:42 10° N 04:23:24 60° WNW 04:24:40 49° WSW visible
25 Apr 6.1 02:42:32 10° NE 02:46:51 21° E 02:47:12 21° E visible
25 Apr 4.6 04:23:22 10° N 04:29:00 53° WNW 04:30:28 43° WSW visible
26 Apr 6.0 02:47:57 10° NE 02:52:32 24° E 02:53:00 23° ESE visible
26 Apr 4.7 04:29:03 10° N 04:34:36 48° WNW 04:36:16 38° WSW visible
27 Apr 5.8 02:53:23 10° NE 02:58:12 26° E 02:58:48 26° ESE visible
27 Apr 4.8 04:34:45 10° N 04:40:11 43° WNW 04:42:04 33° WSW visible
28 Apr 5.7 02:58:51 10° NE 03:03:52 30° E 03:04:36 29° ESE visible
28 Apr 5.0 04:40:27 10° N 04:45:47 39° WNW 04:47:52 29° WSW visible
29 Apr 5.5 03:04:21 10° NNE 03:09:32 33° E 03:10:23 32° ESE visible
29 Apr 5.1 04:46:10 10° N 04:51:22 35° WNW 04:53:40 26° WSW visible
